Location: Furnace Creek
(36.4500°N, 116.8500°W)
Time: 09:23:35
(UTC-08:00)

N. Korean satellite - Visible Passes

Search period start: 02 December 2020 00:00
Search period end: 12 December 2020 00:00
Orbit: 453 x 503 km, 97.2° (Epoch: 01 December)

Date Brightness Start Highest point End Pass type
(mag) Time Alt. Az. Time Alt. Az. Time Alt. Az.
02 Dec 6.8 05:09:25 10° NNE 05:13:04 73° E 05:16:43 10° S visible
02 Dec 9.4 17:15:57 10° SSW 17:18:37 21° W 17:21:18 10° NW visible
03 Dec 8.6 04:43:26 10° NE 04:46:42 30° E 04:49:58 10° SSE visible
04 Dec 9.8 04:18:13 10° ENE 04:20:15 14° E 04:22:15 10° SE visible
04 Dec 7.4 05:50:23 10° NNW 05:53:35 29° WNW 05:56:48 10° SW visible
05 Dec 6.5 05:23:42 10° N 05:27:21 69° WNW 05:31:00 10° SSW visible
05 Dec 9.8 17:31:07 10° SW 17:32:57 14° W 17:34:48 10° WNW visible
06 Dec 7.6 04:57:26 10° NNE 05:01:00 48° E 05:04:34 10° S visible
06 Dec 8.7 17:03:23 10° SSW 17:06:27 31° W 17:09:35 10° NNW visible
07 Dec 9.2 04:31:40 10° NE 04:34:34 21° E 04:37:27 10° SSE visible
07 Dec 7.9 06:05:01 10° NNW 06:07:44 20° WNW 06:10:27 10° WSW visible
08 Dec 6.9 05:38:01 10° N 05:41:30 42° WNW 05:45:00 10° SSW visible
09 Dec 6.7 05:11:30 10° NNE 05:15:11 79° E 05:18:53 10° S visible
09 Dec 9.5 17:18:03 10° SW 17:20:39 20° W 17:23:18 10° NW visible
10 Dec 8.4 04:45:24 10° NNE 04:48:46 33° E 04:52:07 10° SSE visible
10 Dec 8.4 06:19:55 10° NW 06:21:45 13° WNW 06:23:37 10° W visible
11 Dec 9.7 04:20:01 10° ENE 04:22:14 15° E 04:24:28 10° SE visible
11 Dec 7.5 05:52:23 10° NNW 05:55:34 28° WNW 05:58:44 10° SW visible
